This demonstration page uses our WeatherBlox Daily Observations layout. Learn more.

Left ArrowRight Arrow

Hourly Observations for June 10, 2017

Temp ( °F °C ) Dew Point ( °F °C ) Humidity (%) Winds ( mph kmh ) Pressure ( in mb ) Visibility ( mi km ) Precip ( " mm )
12:51 am 00:51 Clear 82 27.8 32 undefined 16 16 NW 13 20 29.65 1004 10 16 N/A
1:51 am 01:51 Clear 79 26.1 32 undefined 18 18 NW 13 20 29.65 1004 10 16 N/A
2:51 am 02:51 Clear 77 25 31 -0.6 18 18 NW 9 15 29.65 1004 10 16 N/A
3:51 am 03:51 Clear 75 23.9 32 undefined 21 21 NNW 8 13 29.66 1004 10 16 N/A
4:51 am 04:51 Clear 71 21.7 30 -1.1 22 22 N N/A 29.67 1005 10 16 N/A
5:51 am 05:51 Sunny 69 20.6 31 -0.6 24 24 N N/A 29.70 1006 10 16 N/A
6:51 am 06:51 Sunny 76 24.4 32 undefined 20 20 ESE 3 6 29.71 1006 10 16 N/A
7:51 am 07:51 Sunny 80 26.7 31 -0.6 17 17 N N/A 29.71 1006 10 16 N/A
8:51 am 08:51 Sunny 85 29.4 30 -1.1 14 14 W 6 9 29.70 1006 10 16 N/A
9:51 am 09:51 Sunny 91 32.8 32 undefined 12 12 N 5 7 29.68 1005 10 16 N/A
10:51 am 10:51 Sunny 93 33.9 31 -0.6 11 11 ENE 6 9 29.68 1005 10 16 N/A
11:51 am 11:51 Sunny 93 33.9 30 -1.1 10 10 VRB 3 6 29.66 1005 10 16 N/A
12:51 pm 12:51 Sunny 95 35 25 -3.9 8 8 undefined N/A 29.64 1004 10 16 N/A
1:51 pm 13:51 Sunny 97 36.1 23 -5 7 7 SW 6 9 29.62 1003 10 16 N/A
2:51 pm 14:51 Sunny 98 36.7 15 -9.4 5 5 N 3 6 29.60 1002 10 16 N/A
3:51 pm 15:51 Sunny 99 37.2 8 -13.3 3 3 S 5 7 29.57 1001 10 16 N/A
4:51 pm 16:51 Sunny 100 37.8 -2 -18.9 2 2 WNW 20 31 29.56 1001 10 16 N/A
5:51 pm 17:51 Sunny 97 36.1 1 -17.2 3 3 W 10 17 29.57 1001 10 16 N/A
6:51 pm 18:51 Sunny 94 34.4 6 -14.4 4 4 WNW 15 24 29.57 1002 10 16 N/A
7:51 pm 19:51 Clear 89 31.7 7 -13.9 4 4 NW 13 20 29.59 1002 10 16 N/A
8:51 pm 20:51 Clear 82 27.8 8 -13.3 6 6 NNW 7 11 29.61 1003 10 16 N/A
9:51 pm 21:51 Clear 78 25.6 11 -11.7 8 8 NW 9 15 29.64 1004 10 16 N/A
10:51 pm 22:51 Clear 77 25 11 -11.7 8 8 NNW 8 13 29.65 1004 10 16 N/A
11:51 pm 23:51 Clear 73 22.8 11 -11.7 9 9 N N/A 29.67 1005 10 16 N/A

Powered by AerisWeather